Regional Weather Roundup
Issued by NWS

Home | Current Version | Previous Version | Graphics & Text | Print | Product List | Glossary On
Versions: 1 2 3 4 5 6 7 8 9 10 11 12 13 14 15 16 17 18 19 20 21 22 23 24 25 26 27 28 29 30 31 32 33 34 35 36 37 38 39 40 41 42 43 44 45 46 47 48 49 50
000
ASUS43 KFSD 191210
RWRSD

WEATHER ROUNDUP FOR SOUTH DAKOTA
NATIONAL WEATHER SERVICE SIOUX FALLS SD
700 AM CDT FRI SEP 19 2014

NOTE: "FAIR" INDICATES FEW OR NO CLOUDS BELOW 12,000 FEET WITH NO
SIGNIFICANT WEATHER AND/OR OBSTRUCTIONS TO VISIBILITY.


SDZ001>005-009-010-012>017-191300-
NORTHWEST AND NORTH CENTRAL SOUTH DAKOTA

CITY           SKY/WX    TMP DP  RH WIND       PRES   REMARKS
BUFFALO          N/A     61  54  77 W14       29.67R
FAITH            N/A     62  55  77 SW5       29.71F
MOBRIDGE       CLOUDY    62  62 100 W8        29.67S
$$

SDZ012>016-024>037-041>051-057-063-072>074-191300-
SOUTHWEST AND SOUTH CENTRAL SOUTH DAKOTA

CITY           SKY/WX    TMP DP  RH WIND       PRES   REMARKS
RAPID CTY ARPT MOCLDY    60  51  72 CALM      29.77S
PIERRE         CLOUDY    61  59  93 CALM      29.66F
CUSTER         CLOUDY    58  46  64 S3        29.92S
ELLSWORTH AFB  MOCLDY    63  51  67 SW5       29.76F
PHILIP         CLOUDY    64  61  90 SW6       29.71F
PINE RIDGE     PTCLDY    55  54  96 NE5       29.82F
WINNER         FAIR      65  62  90 S9        29.74F
$$

SDZ004>011-016>023-039-040-191300-
NORTHEAST SOUTH DAKOTA

CITY           SKY/WX    TMP DP  RH WIND       PRES   REMARKS
ABERDEEN       CLOUDY    62  59  90 S15       29.67S
WATERTOWN      CLOUDY    59  58  96 S18       29.74F FOG
SISSETON         N/A     63  59  87 S16G25    29.67F
$$

SDZ017-020-022-023-036>040-048>070-191300-
SOUTHEAST SOUTH DAKOTA

CITY           SKY/WX    TMP DP  RH WIND       PRES   REMARKS
SIOUX FALLS    DRIZZLE   63  60  90 S16       29.83F FOG
HURON          CLOUDY    62  60  93 S14G22    29.71F
CHAMBERLAIN    MOCLDY    62  61  97 S8        29.71F
MITCHELL       CLOUDY    64  62  93 SE13      29.75F
YANKTON        CLOUDY    66  63  88 S10       29.80F
$$

ABBREVIATIONS USED IN REMARKS
   TC - TEMPERATURE IN CELSIUS
  WCI - WIND CHILL INDEX
   HX - HEAT INDEX
  VSB - VISIBILITY



USA.gov is the U.S. government's official web portal to all federal, state and local government web resources and services.